Regional Weather Roundup
Issued by NWS

Home | Current Version | Previous Version | Graphics & Text | Print | Product List | Glossary On
Versions: 1 2 3 4 5 6 7 8 9 10 11 12 13 14 15 16 17 18 19 20 21 22 23 24 25 26 27 28 29 30 31 32 33 34 35 36 37 38 39 40 41 42 43 44 45 46 47 48 49 50
000
ASUS43 KMPX 011710
RWRMN
WEATHER ROUNDUP FOR MINNESOTA
NATIONAL WEATHER SERVICE TWIN CITIES/CHANHASSEN MN
1200 PM CDT SUN MAY 01 2016


NOTE: "FAIR" INDICATES FEW OR NO CLOUDS BELOW 12,000 FEET WITH NO
SIGNIFICANT WEATHER AND/OR OBSTRUCTIONS TO VISIBILITY. N/A MEANS
CURRENT SKY AND/OR WEATHER CONDITIONS ARE NOT AVAILABLE.

MNZ060>063-068>070-011800-
   Twin Cities Metro

CITY           SKY/WX    TMP DP  RH WIND       PRES   REMARKS
TWIN CITIES    PTSUNNY   56  37  49 N9G18     30.15F
ST PAUL        MOSUNNY   56  39  53 N13G20    30.15F
CRYSTAL        SUNNY     57  37  47 N12G18    30.15F
BLAINE         MOSUNNY   55  37  50 NE9G18    30.17S
EDEN PRAIRIE   SUNNY     56  37  49 N10       30.14F
SOUTH ST PAUL  SUNNY     55  35  45 NE9G16    30.14F
LAKE ELMO      FAIR      55  37  50 N12G17    30.15F
$$
MNZ001>005-007-008-013>017-022>024-027-028-011800-
   Northwest Minnesota

CITY           SKY/WX    TMP DP  RH WIND       PRES   REMARKS
BEMIDJI        SUNNY     54  29  38 NW7       30.24F
HALLOCK        SUNNY     61  21  21 NE8       30.27F
ROSEAU         SUNNY     57  34  41 E8        30.27F
WARROAD        SUNNY     52  36  54 E6        30.29F
THIEF RVR FALL SUNNY     55  25  30 E5        30.28F
CROOKSTON      SUNNY     57  28  33 NW3       30.27F
FOSSTON        SUNNY     57  32  38 N9        30.26F
DETROIT LAKES  SUNNY     54  30  40 N7G17     30.25F
MOORHEAD       SUNNY     55  28  35 NE7       30.27F
PARK RAPIDS    SUNNY     54  27  35 NE13G20   30.23F
MAHNOMEN       FAIR      56  31  39 NE14      30.24F
$$
MNZ006-009>011-018-025>026-011800-
   North Central Minnesota

CITY           SKY/WX    TMP DP  RH WIND       PRES   REMARKS
BAUDETTE       SUNNY     57  27  31 E9        30.27F
FLAG ISLAND    SUNNY     45  36  70 S3        30.28F
INTL FALLS     SUNNY     51  30  44 N9        30.26F
WASKISH        SUNNY     55  30  38 NE13      30.25F
BIG FORK       SUNNY     55  28  35 NE10      30.24F
LONGVILLE      SUNNY     54  28  37 N12       30.23F
GRAND RAPIDS   SUNNY     52  25  35 NE6       30.24F
CRANE LAKE     SUNNY     48  28  46 N7        30.27F
ORR            SUNNY     54  25  32 CALM      30.22F
COOK           SUNNY     52  30  43 NE5       30.24F
WALKER         FAIR      52  30  42 NE5       30.24F
$$
MNZ012-019>021-037-011800-
   Northeast Minnesota

CITY           SKY/WX    TMP DP  RH WIND       PRES   REMARKS
DULUTH         MOSUNNY   48  36  63 SE14      30.22F
ELY            SUNNY     50  28  43 N6        30.23F
HIBBING        SUNNY     52  30  43 N6        30.22F
EVELETH        SUNNY     52  30  43 NE9G17    30.23F
DULUTH HARBOR  SUNNY     45  37  76 E13       30.27F
TWO HARBORS    SUNNY     52  39  62 E13       30.23S
SILVER BAY     SUNNY     48  37  66 E9        30.23F
GRAND MARAIS     N/A     43  35  73 NE8       30.26S
G MARAIS ARPRT SUNNY     52  30  43 NE3       30.23S
$$
MNZ029>031-032-039>041-046>048-054>057-064-011800-
   West Central Minnesota

CITY           SKY/WX    TMP DP  RH WIND       PRES   REMARKS
FERGUS FALLS   SUNNY     55  30  38 E10G17    30.22F
WHEATON        SUNNY     57  34  41 NE17G23   30.26F
MORRIS         SUNNY     55  34  44 NE13G22   30.22S
ALEXANDRIA     SUNNY     53  31  42 NE15G23   30.22F
ELBOW LAKE     FAIR      52  32  46 E16       30.23F
WADENA         SUNNY     54  30  40 NE10G17   30.22F
GLENWOOD       SUNNY     54  32  43 NE13G23   30.21F
APPLETON       SUNNY     55  30  38 NE17G26   30.21S
BENSON         SUNNY     55  27  33 E13G22    30.21S
ORTONVILLE     SUNNY     54  30  40 NE14G22   30.23S
MADISON        SUNNY     55  34  44 NE16G23   30.21S
WILLMAR        FAIR      54  36  50 E16       30.21S
$$
MNZ033>034-036-042>043-049>051-058-059-011800-
   Central Minnesota

CITY           SKY/WX    TMP DP  RH WIND       PRES   REMARKS
ST CLOUD       PTSUNNY   53  33  46 NE14G20   30.19F
SAUK CENTRE    FAIR      52  33  47 NE14G21   30.21S
PAYNESVILLE    MOSUNNY   53  32  44 NE16G22   30.20S
AITKIN         SUNNY     57  27  30 NE14      30.21S
PINE RIVER     SUNNY     54  34  47 N13G20    30.24F
BRAINERD       SUNNY     54  29  38 N13       30.22F
STAPLES        SUNNY     54  28  37 N9G18     30.21F
LONG PRAIRIE   FAIR      52  32  46 NE9G17    30.21F
LITTLE FALLS   SUNNY     52  30  43 N7        30.21F
LITCHFIELD     MOSUNNY   54  36  50 NE15      30.19S
BUFFALO        MOSUNNY   53  35  49 N13G18    30.18F
MAPLE LAKE     MOSUNNY   55  38  52 N9G16     30.19F
HUTCHINSON     SUNNY     53  38  57 N13G23    30.18S
$$
MNZ037-044-045-052-053-011800-
   East Central Minnesota

CITY           SKY/WX    TMP DP  RH WIND       PRES   REMARKS
PRINCETON      MOSUNNY   55  37  50 N13       30.19F
MORA           MOSUNNY   52  34  50 NE8       30.21F
CAMBRIDGE      MOSUNNY   55  37  50 NE12      30.17S
RUSH CITY      MOSUNNY   54  36  51 NE13      30.18F
MOOSE LAKE     SUNNY     50  34  53 NE12G18   30.20F
HINCKLEY       FAIR      52  37  58 NE10G20   30.20F
CLOQUET        SUNNY     50  36  57 E8        30.22F
MCGREGOR       SUNNY     54  34  47 NE10      30.22F
$$
MNZ071>073-080-081-089-090-097-098-011800-
   Southwest Minnesota

CITY           SKY/WX    TMP DP  RH WIND       PRES   REMARKS
MONTEVIDEO     SUNNY     55  32  41 E16G22    30.22S
GRANITE FALLS  SUNNY     55  34  45 NE13G20   30.21S
CANBY          MOSUNNY   55  37  50 NE13      30.22S
MARSHALL       SUNNY     52  35  52 N14G20    30.19F
REDWOOD FALLS  SUNNY     54  32  43 N14G21    30.17F
OLIVIA         MOSUNNY   54  34  47 NE13G21   30.17S
PIPESTONE      MOSUNNY   48  37  66 NE14      30.17S
WINDOM         CLOUDY    48  41  76 N13       30.16R
WORTHINGTON    CLOUDY    46  40  79 N21       30.16R
JACKSON        CLOUDY    50  41  71 VRB16     30.14S
TRACY          CLOUDY    51  38  62 NE10      30.18F
SLAYTON        CLOUDY    46  40  80 N14G20    30.18S
$$
MNZ065>067-074>077-082>085-091>093-011800-
   South Central Minnesota

CITY           SKY/WX    TMP DP  RH WIND       PRES   REMARKS
MANKATO        SUNNY     54  37  54 NE13G21   30.14S
NEW ULM        SUNNY     54  37  54 NE12G20   30.15S
ST JAMES       CLOUDY    46  37  71 N12       30.16R
FAIRMONT       CLOUDY    46  37  71 N13       30.13R
GLENCOE        MOSUNNY   54  41  62 N13       30.15F
FARIBAULT      MOSUNNY   54  39  58 NE13      30.13S
OWATONNA       MOSUNNY   54  37  54 N14G20    30.12S
WASECA         CLOUDY    52  41  66 N12       30.13S
ALBERT LEA     CLOUDY    48  39  71 N14       30.11R
$$
MNZ078>079-086>088-094>096-011800-
   Southeast Minnesota

CITY           SKY/WX    TMP DP  RH WIND       PRES   REMARKS
ROCHESTER      CLOUDY    53  42  66 N13       30.10S
RED WING       SUNNY     59  30  33 N7        30.11S
STANTON        SUNNY     56  38  50 NE9G18    30.11F
DODGE CENTER   CLOUDY    52  41  66 NE12      30.10S
WINONA         MOSUNNY   54  39  58 NE5       30.10F
AUSTIN         CLOUDY    48  39  71 NE9       30.09S
PRESTON        CLOUDY    48  38  69 NE13G20   30.09S
$$
ABBREVIATIONS USED IN REMARKS
   TC - TEMPERATURES IN CELSIUS
  WCI - WIND CHILL INDEX
   HX - HEAT INDEX
  VSB - VISIBILITY
$$



USA.gov is the U.S. government's official web portal to all federal, state and local government web resources and services.